DAL2990 KEWR-KHSV

Flight info

Callsign DAL2990
Flight time N/A
Altitude 40000
Route LANNA J48 MOL HLRRY EMAHH RQZ
Aircraft A333/H-SDE3GHIJ2J3J5M1RVWXY/LB2D1

Departure

Time 2026-05-05 16:16
Airport Newark Liberty International Airport (KEWR)

Arrival

Time N/A
Airport Huntsville International Airport (KHSV)
Time Latitude Longitude Altitude Speed Heading
2026-05-05 15:56 40.69346 -74.17171 21 ft 0 kts 287°
2026-05-05 16:08 40.69347 -74.17173 21 ft 0 kts 287°
2026-05-05 16:09 40.69340 -74.17154 25 ft 2 kts 303°
2026-05-05 16:09 40.69331 -74.17136 24 ft 2 kts 303°
2026-05-05 16:09 40.69322 -74.17119 26 ft 2 kts 303°
2026-05-05 16:09 40.69310 -74.17102 25 ft 3 kts 345°
2026-05-05 16:10 40.69298 -74.17099 24 ft 1 kts 18°
2026-05-05 16:11 40.69306 -74.17096 25 ft 4 kts 18°
2026-05-05 16:11 40.69580 -74.16926 25 ft 22 kts 26°
2026-05-05 16:12 40.69723 -74.16837 23 ft 23 kts 26°
2026-05-05 16:12 40.69823 -74.16781 22 ft 18 kts 16°
2026-05-05 16:13 40.70067 -74.16513 19 ft 10 kts 95°
2026-05-05 16:13 40.70066 -74.16490 19 ft 0 kts 96°
2026-05-05 16:14 40.70038 -74.16379 19 ft 0 kts 139°
2026-05-05 16:14 40.69858 -74.16486 20 ft 35 kts 214°
2026-05-05 16:15 40.69093 -74.16965 30 ft 132 kts 205°
2026-05-05 16:15 40.66529 -74.18565 452 ft 259 kts 206°
2026-05-05 16:16 40.63019 -74.20831 1278 ft 300 kts 207°
2026-05-05 16:16 40.59116 -74.23453 2205 ft 328 kts 208°
2026-05-05 16:17 40.54982 -74.26372 3159 ft 349 kts 209°
2026-05-05 16:17 40.52823 -74.27948 3635 ft 359 kts 210°
2026-05-05 16:18 40.49168 -74.31894 4800 ft 329 kts 244°
2026-05-05 16:18 40.48532 -74.34724 5911 ft 319 kts 261°
2026-05-05 16:18 40.48111 -74.40328 8487 ft 298 kts 264°
2026-05-05 16:19 40.47855 -74.43002 9663 ft 293 kts 261°
2026-05-05 16:19 40.47490 -74.45639 10647 ft 295 kts 258°
2026-05-05 16:19 40.46469 -74.50917 12467 ft 302 kts 254°
2026-05-05 16:20 40.45245 -74.56291 14165 ft 311 kts 253°
2026-05-05 16:20 40.43969 -74.61794 15762 ft 319 kts 253°
2026-05-05 16:21 40.42684 -74.67405 17273 ft 327 kts 253°
2026-05-05 16:22 40.40706 -74.76125 19394 ft 338 kts 253°
2026-05-05 16:22 40.39343 -74.82121 20742 ft 346 kts 253°
2026-05-05 16:23 40.37949 -74.88232 22015 ft 353 kts 253°
2026-05-05 16:23 40.37240 -74.91337 22625 ft 357 kts 253°
2026-05-05 16:23 40.35795 -74.97640 23828 ft 364 kts 253°
2026-05-05 16:24 40.35061 -75.00839 24408 ft 367 kts 253°
2026-05-05 16:24 40.34329 -75.04022 24958 ft 371 kts 253°
2026-05-05 16:24 40.32822 -75.10560 26021 ft 378 kts 253°
2026-05-05 16:25 40.32058 -75.13867 26529 ft 381 kts 253°
2026-05-05 16:25 40.30505 -75.20576 27513 ft 387 kts 253°
2026-05-05 16:25 40.29719 -75.23966 27982 ft 390 kts 253°
2026-05-05 16:26 40.28123 -75.30834 28892 ft 396 kts 253°
2026-05-05 16:26 40.26514 -75.37734 29729 ft 402 kts 253°
2026-05-05 16:27 40.25692 -75.41247 30136 ft 405 kts 253°
2026-05-05 16:27 40.24865 -75.44783 30534 ft 407 kts 253°
2026-05-05 16:27 40.24029 -75.48348 30912 ft 410 kts 253°
2026-05-05 16:27 40.23187 -75.51927 31283 ft 413 kts 252°
2026-05-05 16:28 40.22155 -75.55442 31641 ft 415 kts 245°
2026-05-05 16:28 40.20787 -75.58787 32005 ft 418 kts 240°
2026-05-05 16:28 40.19277 -75.62044 32346 ft 420 kts 238°
2026-05-05 16:28 40.17686 -75.65273 32691 ft 423 kts 237°
2026-05-05 16:29 40.16056 -75.68484 33018 ft 425 kts 236°
2026-05-05 16:29 40.14428 -75.71662 33335 ft 428 kts 236°
2026-05-05 16:29 40.12765 -75.74909 33643 ft 430 kts 236°
2026-05-05 16:29 40.11099 -75.78171 33953 ft 432 kts 236°
2026-05-05 16:30 40.09429 -75.81457 34243 ft 435 kts 237°
2026-05-05 16:30 40.07757 -75.84755 34522 ft 437 kts 237°
2026-05-05 16:30 40.06075 -75.88074 34792 ft 439 kts 237°
2026-05-05 16:30 40.04383 -75.91414 35067 ft 441 kts 237°
2026-05-05 16:31 40.02689 -75.94755 35336 ft 443 kts 237°
2026-05-05 16:31 40.00981 -75.98122 35612 ft 445 kts 237°
2026-05-05 16:31 39.99266 -76.01497 35880 ft 447 kts 237°
2026-05-05 16:31 39.97545 -76.04878 36127 ft 449 kts 236°
2026-05-05 16:32 39.95813 -76.08279 36373 ft 451 kts 236°
2026-05-05 16:32 39.94088 -76.11661 36601 ft 453 kts 236°
2026-05-05 16:32 39.92335 -76.15095 36815 ft 455 kts 236°
2026-05-05 16:32 39.90574 -76.18540 37048 ft 457 kts 236°
2026-05-05 16:33 39.88807 -76.21993 37259 ft 459 kts 236°
2026-05-05 16:33 39.87033 -76.25457 37465 ft 461 kts 236°
2026-05-05 16:33 39.85246 -76.28940 37651 ft 464 kts 236°
2026-05-05 16:33 39.83447 -76.32445 37843 ft 465 kts 236°
2026-05-05 16:34 39.81642 -76.35957 38048 ft 467 kts 236°
2026-05-05 16:34 39.79832 -76.39475 38224 ft 469 kts 236°
2026-05-05 16:34 39.78011 -76.43011 38429 ft 471 kts 236°
2026-05-05 16:34 39.76184 -76.46554 38599 ft 473 kts 236°
2026-05-05 16:35 39.74346 -76.50114 38763 ft 474 kts 236°
2026-05-05 16:35 39.72526 -76.53635 38929 ft 476 kts 236°
2026-05-05 16:35 39.70673 -76.57218 39083 ft 478 kts 236°
2026-05-05 16:35 39.68815 -76.60804 39241 ft 480 kts 236°
2026-05-05 16:36 39.66943 -76.64414 39392 ft 481 kts 236°
2026-05-05 16:36 39.65070 -76.68022 39539 ft 483 kts 236°
2026-05-05 16:36 39.63193 -76.71635 39682 ft 484 kts 236°
2026-05-05 16:36 39.61306 -76.75261 39842 ft 485 kts 236°
2026-05-05 16:37 39.59412 -76.78897 39960 ft 487 kts 236°
2026-05-05 16:37 39.57510 -76.82542 40045 ft 488 kts 236°
2026-05-05 16:37 39.53695 -76.89845 40070 ft 489 kts 236°
2026-05-05 16:38 39.49738 -76.96952 40058 ft 489 kts 228°
2026-05-05 16:38 39.44756 -77.02930 40070 ft 489 kts 220°
2026-05-05 16:39 39.39489 -77.08524 40055 ft 490 kts 219°
2026-05-05 16:39 39.34172 -77.14037 40059 ft 490 kts 219°
2026-05-05 16:40 39.28868 -77.19553 40071 ft 490 kts 219°
2026-05-05 16:40 39.23572 -77.25084 40069 ft 490 kts 219°
2026-05-05 16:41 39.18275 -77.30617 40063 ft 489 kts 219°
2026-05-05 16:41 39.12989 -77.36128 40058 ft 489 kts 219°
2026-05-05 16:42 39.07734 -77.41595 40064 ft 489 kts 219°
2026-05-05 16:42 39.02437 -77.47094 40058 ft 489 kts 219°
2026-05-05 16:43 38.97140 -77.52581 40063 ft 489 kts 219°
2026-05-05 16:43 38.91839 -77.58062 40059 ft 489 kts 219°
2026-05-05 16:44 38.86536 -77.63533 40055 ft 489 kts 219°
2026-05-05 16:44 38.81230 -77.68998 40054 ft 489 kts 219°
2026-05-05 16:45 38.75951 -77.74424 40059 ft 489 kts 219°
2026-05-05 16:45 38.70625 -77.79888 40054 ft 489 kts 219°
2026-05-05 16:46 38.65360 -77.85403 40063 ft 489 kts 224°
2026-05-05 16:46 38.60934 -77.91935 40061 ft 488 kts 232°
2026-05-05 16:47 38.56817 -77.98853 40056 ft 488 kts 233°
2026-05-05 16:47 38.52768 -78.05817 40062 ft 489 kts 233°
2026-05-05 16:48 38.48694 -78.12785 40060 ft 489 kts 233°
2026-05-05 16:48 38.44604 -78.19723 40062 ft 489 kts 233°
2026-05-05 16:49 38.40501 -78.26652 40060 ft 489 kts 233°
2026-05-05 16:49 38.36426 -78.33519 40067 ft 489 kts 233°
2026-05-05 16:50 38.32311 -78.40438 40066 ft 489 kts 233°
2026-05-05 16:50 38.28216 -78.47312 40059 ft 489 kts 233°
2026-05-05 16:51 38.24104 -78.54200 40060 ft 489 kts 233°
2026-05-05 16:51 38.19982 -78.61089 40059 ft 489 kts 233°
2026-05-05 16:52 38.15856 -78.67971 40057 ft 490 kts 233°
2026-05-05 16:52 38.11718 -78.74857 40066 ft 490 kts 233°
2026-05-05 16:53 38.08271 -78.80585 40058 ft 491 kts 233°
2026-05-05 16:53 38.03436 -78.88600 40060 ft 491 kts 232°
2026-05-05 16:54 37.99966 -78.94339 40056 ft 491 kts 232°
2026-05-05 16:54 37.95126 -79.02330 40064 ft 491 kts 232°
2026-05-05 16:55 37.91683 -79.08147 40057 ft 492 kts 237°
2026-05-05 16:55 37.88807 -79.15942 40063 ft 493 kts 251°
2026-05-05 16:56 37.86692 -79.24198 40064 ft 492 kts 253°
2026-05-05 16:56 37.84731 -79.32486 40060 ft 491 kts 253°
2026-05-05 16:57 37.82771 -79.40722 40058 ft 490 kts 253°
2026-05-05 16:57 37.80773 -79.48969 40071 ft 490 kts 253°
2026-05-05 16:58 37.78759 -79.57193 40073 ft 490 kts 253°
2026-05-05 16:58 37.76735 -79.65420 40065 ft 491 kts 253°
2026-05-05 16:59 37.74700 -79.73671 40064 ft 492 kts 252°
2026-05-05 16:59 37.72658 -79.81926 40063 ft 490 kts 252°
2026-05-05 17:00 37.70631 -79.90094 40057 ft 490 kts 252°
2026-05-05 17:00 37.68582 -79.98321 40062 ft 492 kts 252°
2026-05-05 17:01 37.66523 -80.06563 40065 ft 492 kts 252°
2026-05-05 17:01 37.64460 -80.14791 40057 ft 491 kts 252°
2026-05-05 17:02 37.62388 -80.23028 40059 ft 491 kts 252°
2026-05-05 17:02 37.60314 -80.31248 40057 ft 492 kts 252°
2026-05-05 17:03 37.58240 -80.39437 40065 ft 493 kts 252°
2026-05-05 17:03 37.56143 -80.47693 40058 ft 493 kts 252°
2026-05-05 17:04 37.54059 -80.55870 40063 ft 492 kts 252°
2026-05-05 17:04 37.51960 -80.64080 40055 ft 492 kts 252°
2026-05-05 17:05 37.49855 -80.72285 40055 ft 491 kts 252°
2026-05-05 17:05 37.47744 -80.80484 40058 ft 491 kts 252°
2026-05-05 17:06 37.45633 -80.88660 40055 ft 491 kts 252°
2026-05-05 17:06 37.43511 -80.96850 40057 ft 491 kts 252°
2026-05-05 17:07 37.41386 -81.05028 40055 ft 492 kts 252°
2026-05-05 17:07 37.39265 -81.13165 40060 ft 493 kts 252°
2026-05-05 17:08 37.37122 -81.21358 40058 ft 493 kts 252°
2026-05-05 17:08 37.34973 -81.29547 40058 ft 492 kts 252°
2026-05-05 17:09 37.32833 -81.37677 40059 ft 493 kts 252°
2026-05-05 17:09 37.30676 -81.45846 40059 ft 492 kts 251°
2026-05-05 17:10 37.28513 -81.54010 40068 ft 492 kts 251°
2026-05-05 17:10 37.26346 -81.62163 40057 ft 492 kts 251°
2026-05-05 17:11 37.24177 -81.70300 40054 ft 491 kts 251°
2026-05-05 17:11 37.21997 -81.78453 40068 ft 492 kts 251°
2026-05-05 17:12 37.19811 -81.86601 40060 ft 493 kts 251°
2026-05-05 17:12 37.17633 -81.94695 40055 ft 492 kts 251°
2026-05-05 17:13 37.15438 -82.02827 39852 ft 492 kts 251°
2026-05-05 17:13 37.14340 -82.06884 39595 ft 490 kts 251°
2026-05-05 17:13 37.13246 -82.10924 39347 ft 487 kts 251°
2026-05-05 17:14 37.12157 -82.14935 39096 ft 485 kts 251°
2026-05-05 17:14 37.11072 -82.18929 38846 ft 482 kts 251°
2026-05-05 17:14 37.09992 -82.22897 38590 ft 479 kts 251°
2026-05-05 17:14 37.08927 -82.26804 38010 ft 480 kts 251°
2026-05-05 17:15 37.07807 -82.30742 37349 ft 481 kts 246°
2026-05-05 17:15 37.06332 -82.34504 36699 ft 481 kts 243°
2026-05-05 17:15 37.04746 -82.38249 36027 ft 481 kts 242°
2026-05-05 17:15 37.03151 -82.41872 35323 ft 482 kts 241°
2026-05-05 17:16 37.01505 -82.45534 34553 ft 483 kts 240°
2026-05-05 17:16 36.99843 -82.49200 33741 ft 485 kts 240°
2026-05-05 17:16 36.98173 -82.52879 32930 ft 487 kts 240°
2026-05-05 17:16 36.96500 -82.56571 32068 ft 489 kts 240°
2026-05-05 17:17 36.94821 -82.60280 31182 ft 491 kts 240°
2026-05-05 17:17 36.93134 -82.64013 30266 ft 493 kts 240°
2026-05-05 17:17 36.91446 -82.67750 29509 ft 491 kts 240°
2026-05-05 17:17 36.89773 -82.71452 28874 ft 485 kts 240°
2026-05-05 17:18 36.88120 -82.75106 28247 ft 480 kts 240°
2026-05-05 17:18 36.86506 -82.78671 27636 ft 474 kts 240°
2026-05-05 17:18 36.84888 -82.82240 27003 ft 469 kts 240°
2026-05-05 17:18 36.83287 -82.85770 26351 ft 464 kts 240°
2026-05-05 17:19 36.81697 -82.89267 25673 ft 460 kts 240°
2026-05-05 17:19 36.80123 -82.92726 25021 ft 456 kts 240°
2026-05-05 17:19 36.78566 -82.96146 24388 ft 451 kts 240°
2026-05-05 17:19 36.77023 -82.99530 23750 ft 446 kts 240°
2026-05-05 17:20 36.75497 -83.02873 23105 ft 441 kts 240°
2026-05-05 17:20 36.73983 -83.06188 22458 ft 437 kts 240°
2026-05-05 17:20 36.72486 -83.09462 21811 ft 432 kts 240°
2026-05-05 17:20 36.71004 -83.12701 21147 ft 428 kts 240°
2026-05-05 17:21 36.69552 -83.15870 20506 ft 424 kts 240°
2026-05-05 17:21 36.68094 -83.19052 19846 ft 420 kts 240°
2026-05-05 17:21 36.66652 -83.22195 19198 ft 415 kts 240°
2026-05-05 17:22 36.63811 -83.28375 17880 ft 407 kts 240°
2026-05-05 17:22 36.62411 -83.31414 17208 ft 403 kts 240°
2026-05-05 17:22 36.61021 -83.34431 16545 ft 399 kts 240°
2026-05-05 17:22 36.59645 -83.37413 15875 ft 395 kts 240°
2026-05-05 17:23 36.58280 -83.40370 15211 ft 391 kts 240°
2026-05-05 17:23 36.56934 -83.43283 14798 ft 387 kts 240°
2026-05-05 17:23 36.55594 -83.46184 14544 ft 387 kts 240°
2026-05-05 17:23 36.54250 -83.49077 14299 ft 386 kts 239°
2026-05-05 17:24 36.52865 -83.51932 14098 ft 384 kts 239°
2026-05-05 17:24 36.51476 -83.54768 13925 ft 384 kts 239°
2026-05-05 17:24 36.50107 -83.57565 13679 ft 382 kts 239°
2026-05-05 17:24 36.49170 -83.59477 13510 ft 381 kts 239°
2026-05-05 17:25 36.47347 -83.63197 13178 ft 380 kts 239°
2026-05-05 17:25 36.46436 -83.65054 13007 ft 379 kts 239°
2026-05-05 17:25 36.44604 -83.68787 12666 ft 377 kts 239°
2026-05-05 17:25 36.43244 -83.71556 12427 ft 375 kts 239°
2026-05-05 17:26 36.41883 -83.74324 12192 ft 374 kts 239°
2026-05-05 17:26 36.40528 -83.77078 12000 ft 372 kts 239°
2026-05-05 17:26 36.39192 -83.79791 11965 ft 372 kts 239°
2026-05-05 17:26 36.37842 -83.82528 11965 ft 372 kts 238°
2026-05-05 17:27 36.36492 -83.85265 11967 ft 372 kts 238°
2026-05-05 17:27 36.35142 -83.87999 11971 ft 372 kts 238°
2026-05-05 17:27 36.33790 -83.90735 11971 ft 372 kts 238°
2026-05-05 17:27 36.32439 -83.93466 11965 ft 372 kts 238°
2026-05-05 17:28 36.31088 -83.96198 11965 ft 372 kts 238°
2026-05-05 17:28 36.29735 -83.98930 11965 ft 372 kts 238°
2026-05-05 17:28 36.28377 -84.01670 11969 ft 371 kts 238°
2026-05-05 17:28 36.27026 -84.04394 11965 ft 371 kts 238°
2026-05-05 17:29 36.25670 -84.07126 11968 ft 371 kts 238°
2026-05-05 17:29 36.24314 -84.09856 11968 ft 371 kts 238°
2026-05-05 17:29 36.22959 -84.12581 11965 ft 372 kts 238°
2026-05-05 17:29 36.21602 -84.15306 11969 ft 372 kts 238°
2026-05-05 17:30 36.20261 -84.18000 11965 ft 371 kts 238°
2026-05-05 17:30 36.18905 -84.20719 11965 ft 372 kts 238°
2026-05-05 17:30 36.17543 -84.23450 11965 ft 372 kts 238°
2026-05-05 17:30 36.16182 -84.26176 11966 ft 373 kts 238°
2026-05-05 17:31 36.14815 -84.28913 11965 ft 373 kts 238°
2026-05-05 17:31 36.13451 -84.31640 11966 ft 373 kts 238°
2026-05-05 17:31 36.12085 -84.34371 11968 ft 373 kts 238°
2026-05-05 17:31 36.10709 -84.37116 11972 ft 373 kts 238°
2026-05-05 17:32 36.09342 -84.39844 11965 ft 373 kts 238°
2026-05-05 17:32 36.07989 -84.42541 11969 ft 373 kts 238°
2026-05-05 17:32 36.06621 -84.45265 11967 ft 373 kts 238°
2026-05-05 17:32 36.05255 -84.47984 11868 ft 372 kts 238°
2026-05-05 17:33 36.03899 -84.50680 11619 ft 362 kts 238°
2026-05-05 17:33 36.02594 -84.53274 11371 ft 347 kts 238°
2026-05-05 17:33 36.01341 -84.55762 11131 ft 336 kts 238°
2026-05-05 17:33 36.00112 -84.58200 10876 ft 333 kts 238°
2026-05-05 17:34 35.98887 -84.60630 10617 ft 333 kts 238°
2026-05-05 17:34 35.97678 -84.63026 10378 ft 332 kts 238°
2026-05-05 17:34 35.96442 -84.65472 10119 ft 331 kts 238°
2026-05-05 17:34 35.95244 -84.67843 9862 ft 328 kts 238°
2026-05-05 17:35 35.94058 -84.70189 9605 ft 317 kts 238°
2026-05-05 17:35 35.92910 -84.72456 9358 ft 306 kts 238°
2026-05-05 17:35 35.91797 -84.74655 9100 ft 297 kts 238°
2026-05-05 17:35 35.90711 -84.76798 8855 ft 292 kts 238°
2026-05-05 17:36 35.89634 -84.78922 8604 ft 291 kts 238°
2026-05-05 17:36 35.88561 -84.81037 8356 ft 290 kts 238°
2026-05-05 17:36 35.87491 -84.83146 8100 ft 289 kts 238°
2026-05-05 17:36 35.86424 -84.85246 7852 ft 288 kts 238°
2026-05-05 17:37 35.85358 -84.87344 7602 ft 287 kts 238°
2026-05-05 17:37 35.84656 -84.88723 7442 ft 287 kts 238°
2026-05-05 17:37 35.83241 -84.91505 7101 ft 285 kts 238°
2026-05-05 17:37 35.82202 -84.93543 6863 ft 284 kts 238°
2026-05-05 17:38 35.81151 -84.95607 6605 ft 283 kts 238°
2026-05-05 17:38 35.80105 -84.97657 6346 ft 282 kts 238°
2026-05-05 17:38 35.79060 -84.99707 6092 ft 281 kts 238°
2026-05-05 17:38 35.78020 -85.01745 5851 ft 280 kts 238°
2026-05-05 17:39 35.77332 -85.03092 5670 ft 279 kts 238°
2026-05-05 17:39 35.76300 -85.05112 5473 ft 278 kts 238°
2026-05-05 17:39 35.74937 -85.07777 5299 ft 277 kts 238°
2026-05-05 17:39 35.73911 -85.09784 5183 ft 277 kts 238°
2026-05-05 17:40 35.72884 -85.11788 5041 ft 276 kts 238°
2026-05-05 17:40 35.72193 -85.13138 4990 ft 276 kts 238°
2026-05-05 17:40 35.71168 -85.15137 4967 ft 276 kts 238°
2026-05-05 17:40 35.70143 -85.17136 4970 ft 276 kts 238°
2026-05-05 17:41 35.69133 -85.19104 4966 ft 276 kts 238°
2026-05-05 17:41 35.68108 -85.21100 4968 ft 276 kts 238°
2026-05-05 17:41 35.67085 -85.23094 4968 ft 276 kts 238°
2026-05-05 17:41 35.66061 -85.25085 4967 ft 276 kts 238°
2026-05-05 17:42 35.65034 -85.27083 4968 ft 276 kts 238°
2026-05-05 17:42 35.64008 -85.29077 4967 ft 276 kts 238°
2026-05-05 17:42 35.62983 -85.31069 4968 ft 276 kts 238°